Regional Weather Roundup
Issued by NWS Green Bay, WI

Home | Current Version | Previous Version | Text Only | Print | Product List | Glossary On
Versions: 1 2 3 4 5 6 7 8 9 10 11 12 13 14 15 16 17 18 19 20 21 22 23 24 25 26 27 28 29 30 31 32 33 34 35 36 37 38 39 40 41 42 43 44 45 46 47 48 49 50
827
ASUS43 KGRB 010211
RWRGRB

NORTH-CENTRAL AND NORTHEAST WISCONSIN REGIONAL WEATHER ROUNDUP
NATIONAL WEATHER SERVICE GREEN BAY WI
900 PM CDT SAT APR 30 2016

WIZ005-009-010>012-018-019-010300-
NORTH CENTRAL WISCONSIN

CITY           SKY/WX    TMP DP  RH WIND       PRES   REMARKS
IRONWOOD         N/A     41  34  75 NE7       30.19R
MANITOWISH WTR MOCLDY    42  31  64 NE13      30.16S
ARBOR VITAE    PTCLDY    44  31  60 NE14G22   30.15S
EAGLE RIVER    CLOUDY    43  30  60 NE13      30.15S
LAND O LAKES   PTCLDY    41  31  68 N9        30.19R
RHINELANDER    CLOUDY    49  31  49 N9        30.11F
PHILLIPS       CLOUDY    46  33  61 NE15      30.11S
ANTIGO         CLOUDY    47  35  64 NE6       30.09S
TOMAHAWK       CLOUDY    49  31  49 NE7       30.11S
MERRILL        CLOUDY    52  34  50 E13       30.09S
$$

WIZ013-073-010300-
NORTHEAST WISCONSIN

CITY           SKY/WX    TMP DP  RH WIND       PRES   REMARKS
IRON MOUNTAIN  PTCLDY    46  30  53 NE10      30.15R
MARINETTE      CLOUDY    48  30  49 NE17      30.11F
OCONTO         CLOUDY    50  32  50 NE9       30.09F
$$

WIZ017-030-035>037-045-010300-
CENTRAL WISCONSIN

CITY           SKY/WX    TMP DP  RH WIND       PRES   REMARKS
MEDFORD        CLOUDY    48  35  61 E6        30.07S
WAUSAU         CLOUDY    52  33  48 E6        30.06S
MOSINEE        NOT AVBL
MARSHFIELD     CLOUDY    50  32  50 E9        30.05S
WISC RAPIDS    LGT RAIN  47  32  56 E14G24    30.07S
STEVENS POINT  DRIZZLE   46  33  59 E16G22    30.07S
WAUPACA        DRIZZLE   48  35  60 NE8       30.05F
SHAWANO        CLOUDY    53  34  48 NE12G17   30.09S
CLINTONVILLE   CLOUDY    50  30  46 E7        30.07F
WAUTOMA        LGT RAIN  44  39  82 NE7       30.06S
$$

WIZ038-039-048-051-010300-
FOX VALLEY

CITY           SKY/WX    TMP DP  RH WIND       PRES   REMARKS
NWS GREEN BAY  LGT RAIN  49  36  61 NE21G31   30.08F
APPLETON       CLOUDY    48  32  53 NE7       30.06S
OSHKOSH        LGT RAIN  47  36  65 NE10      30.02F
FOND DU LAC    LGT RAIN  44  38  79 NE12      30.02F
$$

WIZ022-050-052-010300-
EAST CENTRAL WISCONSIN

CITY           SKY/WX    TMP DP  RH WIND       PRES   REMARKS
EPHRAIM        FAIR      43  35  74 NE15      30.11S
STURGEON BAY   CLOUDY    46  32  57 NE16      30.11F
MANITOWOC      LGT RAIN  47  33  58 MISG      30.07S
SHEBOYGAN      LGT RAIN  43  37  79 NE7       30.06S
$$

LMZ563-521-522-541>543-010300-
LAKESHORE

STATION/POSITION TIME  TEMP    WIND        PRES    VSBY  WAVE
                       AIR SEA DIR/SP/G                  HT/PER
                 (UTC) (F)     (DEG/KT/KT) (MB)    (MI)  (FT/S)
SHEBOYGAN LKSHOR 0200   42      30/  9/  9 1018.8R
KEWAUNEE LKSHORE 0100   45      20/ 12/ 17 1017.9R
ALGOMA MARINA    0100           30/ 14/ 20   N/A
NORTHPORT PIER   0100   46      10/ 17/ 21 1020.0R
N MID LAKE BUOY  0150   43 38   20/ 16/ 19 1019.9R         2/ 3
CHAMBERS ISLAND  0100   45     360/ 16/ 19 1020.3R
MENOMINEE LKSHOR 0100   47      20/ 14/ 17 1018.7R
$$




USA.gov is the U.S. government's official web portal to all federal, state and local government web resources and services.